User: anonymous   Login
Location: Deer Path Park
(40.5570°N, 74.8450°W)
Time: 14:44:04
(UTC-04:00)
Language:

Iridium 49 - Orbit

View from above orbital plane
View from above orbital plane
View from above satellite
View from above satellite

Ground track
Ground track

The orbit data is extracted from the following two-line orbital elements,

1 25108U 97082E   17207.82524640 -.00000034 +00000-0 -19259-4 0  9999
2 25108 086.3946 238.8173 0002117 089.5992 034.8603 14.34219100025791
Epoch (UTC): 26 July 2017 19:48:21
Eccentricity: 0.0002117
inclination: 86.3946°
perigee height: 776 km
apogee height: 779 km
right ascension of ascending node: 238.8173°
argument of perigee: 89.5992°
revolutions per day: 14.34219100
mean anomaly at epoch: 34.8603°
orbit number at epoch: 2579

The dashed part of the orbit path shows where the satellite is in the earth's shadow,  

DLR